Regional Weather Roundup
Issued by NWS Northern Indiana

Home | Current Version | Previous Version | Graphics & Text | Print | Product List | Glossary On
Versions: 1 2 3 4 5 6 7 8 9 10 11 12 13 14 15 16 17 18 19 20 21 22 23 24 25 26 27 28 29 30 31 32 33 34 35 36 37 38 39 40 41 42 43 44 45 46 47 48 49 50
000
ASUS43 KIWX 250300
RWRIWX

KIWX WEATHER ROUNDUP
NATIONAL WEATHER SERVICE NORTHERN INDIANA
1100 PM EDT FRI OCT 24 2014

NOTE: "FAIR" INDICATES FEW OR NO CLOUDS BELOW 12,000 FEET WITH NO
SIGNIFICANT WEATHER AND/OR OBSTRUCTIONS TO VISIBILITY.

* THESE STATIONS ARE NOT UNDER NWS QUALITY CONTROL. THEY ALSO MAY NOT
  REPORT WEATHER SUCH AS PRECIPITATION OR FOG.

INZ001>027-250400-
NORTHERN INDIANA

CITY           SKY/WX    TMP DP  RH WIND       PRES   REMARKS
GARY*          MOCLDY    59  46  63 CALM      29.96F
SOUTH BEND     PTCLDY    50  46  86 CALM      29.98F
GOSHEN         PTCLDY    48  45  89 CALM      29.98F FOG
ANGOLA*        CLOUDY    46  45  93 CALM      29.98F VSB 1/4
FORT WAYNE     PTCLDY    49  46  90 SW8       30.00F

$$
INZ028>050-250400-
CENTRAL INDIANA

CITY           SKY/WX    TMP DP  RH WIND       PRES   REMARKS
LAFAYETTE      MOCLDY    53  50  89 SW3       30.01R
KOKOMO*        PTCLDY    52  46  82 SW6       30.01S
MUNCIE*        PTCLDY    54  48  80 SW5       30.02S
INDIANAPOLIS   PTCLDY    53  48  83 SW5       30.02S

$$
MIZ043>046-050>051-056>058-064>065-071>073-077>080-250400-
SOUTHWEST LOWER MICHIGAN

CITY           SKY/WX    TMP DP  RH WIND       PRES   REMARKS
BATTLE CREEK   CLEAR     45  41  86 CALM      29.97F
BENTON HARBOR  PTCLDY    47  46  97 CALM      29.95F FOG
COLDWATER*     CLEAR     46  45  97 CALM      29.98S FOG
HILLSDALE*     PTCLDY    50  49  98 SW5       29.98S
HOLLAND        PTCLDY    48  45  89 CALM      29.95S FOG
GRAND RAPIDS   PTCLDY    45  44  97 S6        29.95F FOG
KALAMAZOO      CLEAR     45  43  93 CALM      29.97F FOG
STURGIS*       CLEAR     45  45 100 CALM      29.97F FOG
THREE RIVERS*  FAIR      47  46  95 CALM      29.97F FOG

$$
OHZ001>008-015>018-024>025-250400-
NORTHWEST OHIO

CITY           SKY/WX    TMP DP  RH WIND       PRES   REMARKS
DEFIANCE       PTCLDY    52  47  83 SW5       30.00R
FINDLAY        PTCLDY    48  43  82 S7        30.00R
TOLEDO EXPRESS MOCLDY    49  45  86 CALM      29.99S
TOLEDO METCALF MOCLDY    51  44  77 CALM      29.99F
LIMA           MOCLDY    54  44  69 SW6       30.01S

$$
AND FOR LAKE MICHIGAN COASTAL AND OPEN LAKE BUOY OBSERVATIONS

STATION/POSITION TEMP    WIND        PRES    VSBY  WAVE
                 AIR SEA DIR/SP/G                  HT/PER
                 (F)     (DEG/KT/KT) (MB)    (MI)  (FT/S)
CALUMET HARBOR    61     200/  6/  9 1012.9F
MICHIGAN CITY     57     130/  8/ 10   N/A
SAINT JOSEPH      55                 1015.2F
SOUTH LAKE BUOY   55 54  150/  6/  6 1014.1F         0

$$
&&



USA.gov is the U.S. government's official web portal to all federal, state and local government web resources and services.